Regional Weather Roundup
Issued by NWS Newport/Morehead, NC

Current Version | Previous Version | Text Only | Print | Product List | Glossary On
Versions: 1 2 3 4 5 6 7 8 9 10 11 12 13 14 15 16 17 18 19 20 21 22 23 24 25 26 27 28 29 30 31 32 33 34 35 36 37 38 39 40 41 42 43 44 45 46 47 48 49 50
000 ASUS42 KMHX 010522 RWRMHX WEATHER ROUNDUP FOR EASTERN NORTH CAROLINA NATIONAL WEATHER SERVICE NEWPORT/MOREHEAD CITY NC 100 AM EDT WED OCT 01 2014 NOTE: "FAIR" INDICATES FEW OR NO CLOUDS BELOW 12,000 FEET WITH NO SIGNIFICANT WEATHER AND/OR OBSTRUCTIONS TO VISIBILITY NCZ015>017-031-032-045>047-102-103-010600- NORTH COAST CITY SKY/WX TMP DP RH WIND PRES REMARKS EDENTON CLEAR 61 60 97 N3 29.91S ELIZABETH CITY CLEAR 65 63 93 NW8 29.91R KITTY HAWK CLEAR 69 64 86 N3 29.88S MANTEO CLEAR 67 64 89 N7 29.90R $$ NCZ045>047-081-094-103-104-010600- CENTRAL COAST CITY SKY/WX TMP DP RH WIND PRES REMARKS FRISCO PTCLDY 67 66 97 VRB6 29.88R SWANQUARTER N/A 64 N/A N/A N2 29.85S $$ NCZ095-097-098-100-101-010600- SOUTHERN COAST CITY SKY/WX TMP DP RH WIND PRES REMARKS BEAUFORT CLEAR 66 63 90 N7 29.89S CEDAR ISLAND N/A 70 N/A N/A VRB12 29.91S JACKSONVILLE CLEAR 66 64 93 N6 29.90S NEWPORT NOT AVBL PINEY ISLAND CLEAR 71 65 81 N7 29.89R HAZE WILMINGTON CLEAR 66 64 93 N7 29.90S $$ NCZ011>013-027>030-043-044-078>080-089-090>093-098-010600- COASTAL PLAIN CITY SKY/WX TMP DP RH WIND PRES REMARKS AHOSKIE FOG 58 57 97 CALM 29.93S VSB 3/4 CLINTON CLEAR 63 63 100 NE3 29.91F ELIZABETHTOWN CLEAR 64 64 100 CALM 29.91S FOG GOLDSBORO CLEAR 63 63 98 CALM 29.90S GREENVILLE FOG 61 61 100 CALM 29.94S VSB 1/2 HAVELOCK CLEAR 67 63 87 N3 29.91R KENANSVILLE CLEAR 61 61 100 CALM 29.92F FOG KINSTON N/A 61 60 98 CALM 29.92S FOG NEW BERN CLEAR 65 62 90 CALM 29.91S RICHLANDS CLEAR 63 59 88 CALM 29.91S ROANOKE RAPIDS NOT AVBL ROCKY MOUNT FOG 57 56 96 CALM 29.92S VSB 1/2 WASHINGTON CLEAR 61 60 97 CALM 29.91S WHITEVILLE CLEAR 64 62 94 CALM 29.90S $$ AMZ130-135-150-152-154-156-158-170-250-252-270-ANZ085-086-088-633-658-670-010600- MARINE OBSERVATIONS STATION/POSITION TIME TEMP WIND PRES WAVE SWELL AIR SEA DIR/SP/G HT/PER HT/PER (UTC) (F) (DEG/KT/KT) (MB) (FT/S) (FT/S) CHESAPEAKE LIGHT 0500 70 20/ 12/ 13 1013.4 BUOY 44014 0500 71 72 10/ 14/ 16 1011.2 3/14 2/14 DUCK 0500 71 73 20/ 12/ 14 1011.5 2E DUCK 0500 N/A 2/14 OREGON INLET 0500 69 73 20/ 10/ 12 1011.9 BUOY 44095 0500 73 N/A 3/ 6 20E OREGON INLET NOT AVBL HATTERAS CG 0500 71 75 20/ 14/ 16 1012.1 DIAMOND BUOY 0500 72 350/ 16/ 19 1011.1 4/ 6 2/14 CAPE LOOKOUT 0500 70 360/ 10/ 13 1011.7 BEAUFORT LAB 0500 68 75 350/ 7/ 10 1011.6 30 SE NEW RIVER 0500 74 80 20/ 14/ 16 1011.2 3/ 5 2/14 5 SE WRIGHTSVILL 0500 68 76 20/ 10/ 12 N/A BUOY 41002 0445 78 80 20/ 8/ 10 1008.7 3/ 7 3/ 7 BUOY 41004 0500 77 81 360/ 8/ 10 1011.5 3/ 6 3/ 6 $$

USA.gov is the U.S. government's official web portal to all federal, state and local government web resources and services.